Tracking 35055 objects as of 19-Aug-2026
HD Live streaming from Space Station
objects crossing your sky now

OSO 2


OSO 2 is no longer on orbit


NORAD ID: 987
Int'l Code: 1965-007A
Launch date: February 3, 1965
Source: United States (US)
Launch site: AIR FORCE EASTERN TEST RANGE (AFETR)
Decay date: 1989-08-09
Your satellite tracking list
Your tracking list is empty




NASA's NSSDC Master Catalog

Two Line Element Set (TLE):
1 00987U 65007  A 89221.41631787  .12086464 +11135-4 +26704-3 0  9999
2 00987 032.8206 195.1834 0001239 283.9518 076.2624 16.46992651356436
Source of the keplerian elements: AFSPC